Home   Weather   Ashdod   Past weeks

Flag for Israel Past Weather in Ashdod, Israel — Yesterday and Last 2 Weeks

Now
82 °F

Passing clouds.


Feels Like: 89 °F
Forecast: 81 / 88 °F
Wind: 3 mph from North

Location: Ben Gurion International Airport

Current Time: Jul 28, 2017 at 12:08:08 am

Latest Report: Jul 27, 2017 at 11:50 pm


Visibility: N/A

Pressure: 29.77 "Hg

Humidity: 79%

Dew Point: 75 °F

Location of AshdodLocation

Past Weather in Ashdod — Graph

°F

Ashdod Temperature Yesterday

Maximum temperature yesterday: 93 °F (at 3:50 pm)
Minimum temperature yesterday: 77 °F (at 4:50 am)
Average temperature yesterday: 85 °F

High & Low Weather Summary for the Past Weeks

 TemperatureHumidityPressure
High99 °F (Jul 16, 12:50 pm)89% (Jul 13, 1:50 am)29.83 "Hg (Jul 13, 1:50 am)
Low72 °F (Jul 16, 5:20 am)24% (Jul 16, 1:20 pm)29.59 "Hg (Jul 13, 5:20 pm)
Average84 °F64%29.72 "Hg
* Reported Jul 12 10:20 pm — Jul 27 10:50 pm, Ashdod. Weather by CustomWeather, © 2017

Note: Actual official high and low records may vary slightly from our data, if they occured in-between our weather recording intervals... More about our weather records

Advertising

Ashdod Weather History for the Previous 24 Hours

Scroll right to see more
 ConditionsComfort  
Time TempWeatherWind HumidityBarometerVisibility
10:50 pm
Thu, Jul 27
84 °FPassing clouds.3 mph74%29.77 "HgN/A
10:20 pm84 °FClear.2 mph74%29.77 "Hg10 mi
9:50 pm84 °FPassing clouds.3 mph74%29.77 "HgN/A
9:20 pm86 °FClear.6 mph70%29.77 "Hg10 mi
8:50 pm86 °FPassing clouds.9 mph70%29.77 "HgN/A
8:20 pm86 °FPassing clouds.8 mph70%29.74 "HgN/A
7:50 pm86 °FPassing clouds.9 mph70%29.74 "HgN/A
7:20 pm88 °FPassing clouds.10 mph66%29.74 "HgN/A
6:50 pm88 °FPassing clouds.8 mph66%29.71 "HgN/A
6:20 pm88 °FPassing clouds.9 mph66%29.71 "HgN/A
5:50 pm90 °FPassing clouds.10 mph67%29.71 "HgN/A
5:20 pm90 °FPassing clouds.12 mph63%29.71 "HgN/A
4:50 pm90 °FSunny.12 mph63%29.71 "Hg10 mi
4:20 pm91 °FSunny.12 mph49%29.71 "Hg10 mi
3:50 pm93 °FSunny.10 mph44%29.71 "Hg10 mi
3:20 pm91 °FSunny.12 mph49%29.71 "Hg10 mi
2:50 pm91 °FSunny.10 mph49%29.71 "Hg10 mi
2:20 pm91 °FPassing clouds.14 mph49%29.71 "HgN/A
1:50 pm91 °FPassing clouds.12 mph49%29.71 "HgN/A
1:20 pm91 °FSunny.12 mph49%29.71 "Hg10 mi
12:50 pm91 °FSunny.9 mph52%29.71 "Hg10 mi
12:20 pm91 °FSunny.9 mph52%29.71 "Hg10 mi
11:50 am91 °FSunny.7 mph56%29.74 "Hg10 mi
11:20 am90 °FPassing clouds.9 mph59%29.74 "HgN/A
10:50 am90 °FPassing clouds.8 mph59%29.74 "HgN/A
9:50 am88 °FPassing clouds.6 mph59%29.74 "HgN/A
9:20 am86 °FPassing clouds.6 mph66%29.74 "HgN/A
8:50 am84 °FPassing clouds.3 mph74%29.74 "HgN/A
8:20 am82 °FPassing clouds.6 mph70%29.74 "HgN/A
7:50 am81 °FPartly sunny.5 mph62%29.74 "HgN/A
7:20 am81 °FPassing clouds.6 mph62%29.74 "HgN/A
6:50 am79 °FSunny.5 mph61%29.74 "Hg10 mi
6:20 am79 °FSunny.3 mph65%29.71 "Hg10 mi
5:50 am77 °FClear.3 mph74%29.71 "Hg10 mi
5:20 am79 °FClear.5 mph74%29.71 "Hg10 mi
4:50 am77 °FClear.3 mph74%29.71 "Hg10 mi
4:20 am79 °FClear.2 mph74%29.71 "Hg10 mi
3:50 am79 °FClear.5 mph74%29.71 "Hg10 mi
3:20 am81 °FClear.3 mph70%29.71 "Hg10 mi
2:50 am81 °FClear.5 mph70%29.71 "Hg10 mi
2:20 am81 °FClear.3 mph70%29.71 "Hg10 mi
1:50 am81 °FClear.2 mph70%29.71 "Hg10 mi
1:20 am81 °FClear.1 mph70%29.68 "Hg10 mi
12:50 am81 °FClear.2 mph70%29.68 "Hg10 mi
12:20 am82 °FClear.2 mph66%29.71 "Hg10 mi
Weather by CustomWeather, © 2017

See weather overviewHow to use our weather pages